sat.trackr.live / text

‹ back to catalog

CONNECTA T1.2

NORAD 55012 · 2023-001D

PAYLOAD ACTIVE UNKNOWN

§ Identity

Operator
Country
TURK
Launch date
2023-01-03
Launch site
AFETR
Launch vehicle
Mass (kg)
RCS (m²)

External: N2YO · Heavens-Above · Gunter

§ Orbital elements

Epoch: 2026-05-25T02:54:02.530368Z

Period
92.97 min
Inclination
97.3281°
Eccentricity
0.0006770
Mean motion
15.48845571 rev/d
Perigee alt
415.5 km
Apogee alt
424.7 km
Semi-major
6,798.2 km
B*
7.3792e-4
RAAN
215.4304°
Arg perigee
167.6835°
Mean anomaly
192.4583°
Rev number
18,897

§ Raw data

CONNECTA T1.21 55012U 23001D   26145.12086262  .00039798  00000+0  73792-3 0  99902 55012  97.3281 215.4304 0006770 167.6835 192.4583 15.48845571188973

JSON: /api/v1/satellites/55012 · /tle

For live sub-satellite position, see the globe view (requires WebGL).

§ Visibility from observer

Set your observer location to see the next 7 days of passes ≥ 10°. The values pass through the URL so the page stays shareable.

No JS? Fill the form by hand. The geolocation button needs JavaScript.

§ Radio — SatNOGS DB

ModeDescriptionDownlinkUplink
GMSK Mode S - GMSK 115k2 TLM 2.223 GHz
GFSK Mode U - GFSK 4k8 AX.25 TLM 401.525 MHz
GFSK Mode U - GFSK 1k2 AX.25 TLM (inactive) 401.525 MHz
GMSK Mode U - GMSK 9k6 AX.25 TLM (inactive) 401.525 MHz

4 transmitters · refreshed weekly from db.satnogs.org